sat.trackr.live / text

‹ back to catalog

GEESAT-6 06

NORAD 65718 · 2025-214G

PAYLOAD ACTIVE UNKNOWN

§ Identity

Operator
Country
PRC
Launch date
2025-09-24
Launch site
YSLA
Launch vehicle
Mass (kg)
RCS (m²)

External: N2YO · Heavens-Above · Gunter

§ Orbital elements

Epoch: 2026-05-25T02:44:42.224640Z

Period
97.10 min
Inclination
49.9918°
Eccentricity
0.0009821
Mean motion
14.83041820 rev/d
Perigee alt
612.9 km
Apogee alt
626.6 km
Semi-major
6,997.9 km
B*
1.7795e-4
RAAN
52.9702°
Arg perigee
148.4938°
Mean anomaly
211.6590°
Rev number
3,611

§ Raw data

GEESAT-6 061 65718U 25214G   26145.11437760  .00001237  00000+0  17795-3 0  99922 65718  49.9918  52.9702 0009821 148.4938 211.6590 14.83041820 36117

JSON: /api/v1/satellites/65718 · /tle

For live sub-satellite position, see the globe view (requires WebGL).

§ Visibility from observer

Set your observer location to see the next 7 days of passes ≥ 10°. The values pass through the URL so the page stays shareable.

No JS? Fill the form by hand. The geolocation button needs JavaScript.